Weather History for KBFD - February, 2014

Change the Weather History Date:

Tuesday, February 25, 2014

  Actual Average Record
Temperature  
Mean Temperature 15 °F 25 °F  
Max Temperature 19 °F 35 °F 62 °F (2001)
Min Temperature 11 °F 16 °F -5 °F (1963)
Degree Days  
Heating Degree Days 50 34  
Month to date heating degree days 1102 902  
Since 1 July heating degree days 5480 5313  
Cooling Degree Days 0 0  
Month to date cooling degree days 0 0  
Year to date cooling degree days 0 0  
Moisture  
Dew Point 6 °F    
Average Humidity 64    
Maximum Humidity 83    
Minimum Humidity 45    
Precipitation  
Precipitation T in 0.09 in 1.57 in (1961)
Month to date precipitation 1.59 2.07  
Year to date precipitation 3.53 5.36  
Sea Level Pressure  
Sea Level Pressure 29.95 in    
Wind  
Wind Speed 9 mph (West)    
Max Wind Speed 18 mph    
Max Gust Speed 27 mph    
Visibility 5 miles    
Events Snow    
T = Trace of Precipitation, MM = Missing Value Source: NWS Daily Summary

Daily Weather History Graph

Daily Weather History Graph

Search for Another Location

Airport or City:

Trip Planner

Search our weather history database for the weather conditions in past years. The results will help you decide how hot, cold, wet, or windy it might be!

Date:

Astronomy

Feb. 25, 2014 Rise Set
Actual Time 6:55 AM EST 6:00 PM EST
Civil Twilight 6:27 AM EST 6:28 PM EST
Nautical Twilight 5:55 AM EST 7:00 PM EST
Astronomical Twilight 5:23 AM EST 7:32 PM EST
Moon 3:51 AM EST (2/25) 2:01 PM EST (2/25)
Length of Visible Light 12h 00m
Length of Day
11h 04m
Waning Crescent, 18% of the Moon is Illuminated
Feb 25
Waning Crescent
Mar 1
New
Mar 8
First Quarter
Mar 16
Full
Mar 23
Last Quarter

Hourly Weather History & Observations

Time (EST) Temp. Windchill Dew Point Humidity Pressure Visibility Wind Dir Wind Speed Gust Speed Precip Events Conditions
12:32 AM 16.0 °F 8.8 °F 10.0 °F 77% 29.95 in 3.0 mi West 4.6 mph - 0.00 in Snow Light Snow
12:40 AM 16.0 °F 10.4 °F 10.0 °F 77% 29.94 in 2.5 mi Variable 3.5 mph - 0.00 in Snow Light Snow
12:47 AM 15.8 °F 7.2 °F 10.4 °F 79% 29.94 in 3.0 mi West 5.8 mph - 0.00 in Snow Light Snow
12:53 AM 16.0 °F 7.4 °F 10.9 °F 81% 30.04 in 2.5 mi West 5.8 mph - 0.00 in Snow Light Snow
1:19 AM 16.0 °F 5.3 °F 10.9 °F 81% 29.94 in 1.2 mi West 8.1 mph - 0.00 in Snow Light Snow
1:53 AM 16.0 °F 6.3 °F 10.9 °F 81% 30.04 in 1.5 mi West 6.9 mph - 0.00 in Snow Light Snow
2:20 AM 16.0 °F 5.3 °F 10.0 °F 77% 29.93 in 3.0 mi WNW 8.1 mph - 0.00 in Snow Light Snow
2:36 AM 16.0 °F 3.6 °F 9.0 °F 74% 29.92 in 6.0 mi WNW 10.4 mph - 0.00 in Snow Light Snow
2:53 AM 15.1 °F 1.1 °F 8.1 °F 74% 30.02 in 5.0 mi WNW 12.7 mph - 0.00 in Snow Light Snow
3:53 AM 15.1 °F 2.5 °F 7.0 °F 70% 30.01 in 10.0 mi WNW 10.4 mph - 0.00 in   Mostly Cloudy
4:21 AM 15.1 °F 5.2 °F 8.1 °F 74% 29.91 in 3.0 mi WNW 6.9 mph - 0.00 in Snow Light Snow
4:29 AM 15.1 °F 5.2 °F 9.0 °F 77% 29.91 in 1.8 mi WNW 6.9 mph - 0.00 in Snow Light Snow
4:39 AM 14.0 °F 5.1 °F 9.0 °F 80% 29.91 in 3.0 mi West 5.8 mph - 0.00 in Snow Light Snow
4:53 AM 14.0 °F 2.0 °F 8.1 °F 77% 30.02 in 4.0 mi WNW 9.2 mph - 0.00 in Snow Light Snow
5:08 AM 14.0 °F -0.2 °F 8.1 °F 77% 29.92 in 2.5 mi NW 12.7 mph - 0.00 in Snow Light Snow
5:22 AM 12.9 °F -0.9 °F 7.0 °F 77% 29.92 in 4.0 mi NW 11.5 mph - 0.00 in Snow Light Snow
5:43 AM 12.9 °F -0.2 °F 6.1 °F 74% 29.93 in 5.0 mi WNW 10.4 mph - 0.00 in Snow Light Snow
5:53 AM 12.0 °F -2.0 °F 5.0 °F 73% 30.03 in 6.0 mi WNW 11.5 mph - 0.00 in Snow Light Snow
6:17 AM 12.0 °F -1.3 °F 5.0 °F 73% 29.93 in 2.0 mi WNW 10.4 mph - 0.00 in Snow Light Snow
6:24 AM 12.0 °F 1.5 °F 6.1 °F 77% 29.92 in 1.8 mi WNW 6.9 mph - 0.00 in Snow Light Snow
6:53 AM 10.9 °F 2.9 °F 6.1 °F 81% 30.02 in 1.8 mi WNW 4.6 mph - 0.00 in Snow Light Snow
7:01 AM 10.9 °F 0.2 °F 5.0 °F 77% 29.92 in 2.0 mi West 6.9 mph - 0.00 in Snow Light Snow
7:09 AM 10.9 °F -0.8 °F 5.0 °F 77% 29.92 in 1.5 mi West 8.1 mph - 0.00 in Snow Light Snow
7:31 AM 10.9 °F -1.8 °F 3.9 °F 73% 29.92 in 3.0 mi West 9.2 mph - 0.00 in Snow Light Snow
7:40 AM 10.9 °F 0.2 °F 3.9 °F 73% 29.93 in 2.5 mi West 6.9 mph - 0.00 in Snow Light Snow
7:50 AM 10.4 °F -0.4 °F 3.2 °F 73% 29.93 in 2.5 mi West 6.9 mph - 0.00 in Snow Light Snow
7:53 AM 10.9 °F 0.2 °F 3.9 °F 73% 30.04 in 2.5 mi West 6.9 mph - 0.00 in Snow Light Snow
8:53 AM 10.9 °F -3.4 °F 3.0 °F 70% 30.04 in 3.0 mi West 11.5 mph - 0.00 in Snow Light Snow
9:27 AM 12.0 °F -2.0 °F 3.0 °F 67% 29.94 in 2.0 mi WNW 11.5 mph 18.4 mph 0.00 in Snow Light Snow
9:39 AM 12.0 °F -2.0 °F 3.0 °F 67% 29.94 in 4.0 mi West 11.5 mph - 0.00 in Snow Light Snow
9:53 AM 12.0 °F -3.4 °F 3.0 °F 67% 30.05 in 5.0 mi WNW 13.8 mph - 0.00 in Snow Light Snow
10:53 AM 12.9 °F -2.2 °F 3.0 °F 65% 30.05 in 4.0 mi West 13.8 mph 20.7 mph 0.00 in Snow Light Snow
11:53 AM 14.0 °F -0.8 °F 3.0 °F 62% 30.04 in 10.0 mi West 13.8 mph 18.4 mph 0.00 in   Overcast
12:53 PM 15.1 °F 3.3 °F 3.9 °F 61% 30.02 in 10.0 mi WNW 9.2 mph - 0.00 in   Overcast
1:53 PM 16.0 °F 3.6 °F 3.9 °F 59% 30.00 in 10.0 mi West 10.4 mph - 0.00 in   Mostly Cloudy
2:19 PM 16.0 °F 2.3 °F 3.0 °F 57% 29.90 in 10.0 mi WNW 12.7 mph - N/A   Mostly Cloudy
2:53 PM 17.1 °F 5.8 °F 1.9 °F 52% 29.99 in 10.0 mi WNW 9.2 mph - N/A   Mostly Cloudy
3:53 PM 18.0 °F 7.7 °F 1.9 °F 50% 29.98 in 10.0 mi West 8.1 mph - N/A   Partly Cloudy
4:53 PM 19.0 °F 8.2 °F 1.9 °F 47% 29.98 in 10.0 mi West 9.2 mph - N/A   Mostly Cloudy
5:53 PM 18.0 °F 11.1 °F 1.9 °F 50% 29.97 in 10.0 mi West 4.6 mph - N/A   Mostly Cloudy
6:53 PM 17.1 °F 6.6 °F 3.0 °F 54% 29.99 in 10.0 mi West 8.1 mph - N/A   Overcast
7:53 PM 16.0 °F 5.3 °F 3.9 °F 59% 29.98 in 10.0 mi West 8.1 mph - N/A   Overcast
8:53 PM 16.0 °F 6.3 °F 7.0 °F 68% 29.96 in 7.0 mi WSW 6.9 mph - 0.00 in Snow Light Snow
9:02 PM 15.1 °F 5.2 °F 8.1 °F 74% 29.85 in 4.0 mi Variable 6.9 mph - 0.00 in Snow Light Snow
9:16 PM 15.1 °F 3.3 °F 8.1 °F 74% 29.85 in 6.0 mi WSW 9.2 mph - 0.00 in Snow Light Snow
9:53 PM 16.0 °F -0.4 °F 3.9 °F 59% 29.95 in 9.0 mi West 18.4 mph 27.6 mph 0.00 in   Overcast
10:03 PM 16.0 °F 3.6 °F 5.0 °F 62% 29.84 in 9.0 mi West 10.4 mph 20.7 mph 0.00 in Snow Light Snow
10:27 PM 15.1 °F 4.2 °F 5.0 °F 64% 29.83 in 9.0 mi West 8.1 mph - 0.00 in   Overcast
10:53 PM 15.1 °F 6.4 °F 6.1 °F 68% 29.92 in 8.0 mi WSW 5.8 mph - 0.00 in   Overcast
11:46 PM 15.1 °F 3.3 °F 7.0 °F 70% 29.79 in 3.0 mi WSW 9.2 mph - 0.00 in Snow Light Snow
11:53 PM 15.1 °F 4.2 °F 7.0 °F 70% 29.89 in 2.5 mi West 8.1 mph - 0.00 in Snow Light Snow